CW5757 Weather Reports


Display with metric or nautical units.
time (UTC)temp
F
wind
direction
speed
MPH
gust
MPH
rain 1hr
in
rain 24hr
in
rain mn
in
humidity
%
barometer
mb
20260504034428 54 204 0.0 0.0 0.00 0.00 0.00 59 1018.0
20260504033928 54 204 0.0 0.0 0.00 0.00 0.00 60 1018.0
20260504033432 54 204 0.0 0.0 0.00 0.00 0.00 61 1018.0
20260504032939 54 204 0.0 0.0 0.00 0.00 0.00 62 1018.0
20260504032446 55 204 0.0 0.0 0.00 0.00 0.00 62 1018.0
20260504031953 55 204 0.0 0.0 0.00 0.00 0.00 61 1017.9
20260504031500 55 204 0.0 0.0 0.00 0.00 0.00 63 1017.8
20260504030955 55 204 0.0 0.0 0.00 0.00 0.00 63 1017.8
20260504030450 55 204 0.0 0.0 0.00 0.00 0.00 63 1017.7
20260504025957 56 204 0.0 0.0 0.00 0.00 0.00 62 1017.6
20260504025440 56 204 0.0 0.0 0.00 0.00 0.00 62 1017.7
20260504024928 56 204 0.0 0.0 0.00 0.00 0.00 63 1017.7
20260504024427 56 204 0.0 0.0 0.00 0.00 0.00 61 1017.7
20260504023928 57 204 0.0 0.0 0.00 0.00 0.00 61 1017.5
20260504023427 57 204 0.0 0.0 0.00 0.00 0.00 60 1017.5
20260504022934 57 204 0.0 0.0 0.00 0.00 0.00 59 1017.4
20260504022441 58 204 0.0 0.0 0.00 0.00 0.00 59 1017.4
20260504021948 58 204 0.0 0.0 0.00 0.00 0.00 60 1017.3
20260504021455 58 204 0.0 0.0 0.00 0.00 0.00 60 1017.2
20260504020950 59 204 0.0 0.0 0.00 0.00 0.00 58 1017.1
20260504020445 59 204 0.0 0.0 0.00 0.00 0.00 55 1017.0
20260504015952 59 204 0.0 0.0 0.00 0.00 0.00 55 1017.0
20260504015428 59 204 0.0 0.0 0.00 0.00 0.00 55 1016.9
20260504014927 60 204 0.0 0.0 0.00 0.00 0.00 55 1016.9
20260504014427 60 204 0.0 0.0 0.00 0.00 0.00 54 1016.9
20260504013928 60 204 0.0 0.0 0.00 0.00 0.00 54 1016.9
20260504013429 61 204 0.0 0.0 0.00 0.00 0.00 54 1016.9
20260504012936 61 204 0.0 0.0 0.00 0.00 0.00 54 1016.7
20260504012443 61 204 0.0 0.0 0.00 0.00 0.00 50 1016.7
20260504011950 62 204 0.0 0.0 0.00 0.00 0.00 50 1016.7
20260504011445 62 204 0.0 0.0 0.00 0.00 0.00 52 1016.6
20260504010952 62 204 0.0 0.0 0.00 0.00 0.00 51 1016.6
20260504010428 63 204 0.0 0.0 0.00 0.00 0.00 50 1016.6
20260504005928 63 204 0.0 0.0 0.00 0.00 0.00 49 1016.5
20260504005427 63 204 0.0 0.0 0.00 0.00 0.00 48 1016.5
20260504004927 64 204 0.0 0.0 0.00 0.00 0.00 46 1016.5
20260504004428 64 204 0.0 0.0 0.00 0.00 0.00 44 1016.4
20260504003928 64 204 0.0 0.0 0.00 0.00 0.00 40 1016.4
20260504003431 65 204 0.0 0.0 0.00 0.00 0.00 40 1016.3
20260504002938 65 204 0.0 0.0 0.00 0.00 0.00 40 1016.3
20260504002445 65 204 0.0 0.0 0.00 0.00 0.00 41 1016.2
20260504001939 66 204 0.0 0.0 0.00 0.00 0.00 40 1016.2
20260504001428 66 204 0.0 0.0 0.00 0.00 0.00 39 1016.2
20260504000927 66 204 0.0 0.0 0.00 0.00 0.00 39 1016.1
20260504000427 66 204 0.0 0.0 0.00 0.00 0.00 39 1016.1
20260503235928 67 204 0.0 0.0 0.00 0.00 0.00 37 1016.0
20260503235428 67 204 0.0 0.0 0.00 0.00 0.00 37 1016.1
20260503234928 67 204 0.0 0.0 0.00 0.00 0.00 37 1016.0
20260503234428 67 204 0.0 0.0 0.00 0.00 0.00 37 1016.0
20260503233928 67 204 0.0 0.0 0.00 0.00 0.00 36 1016.0
20260503233427 68 204 0.0 0.0 0.00 0.00 0.00 36 1016.0
20260503232927 68 204 0.0 0.0 0.00 0.00 0.00 35 1016.1
20260503232427 68 204 0.0 0.0 0.00 0.00 0.00 35 1016.1
20260503231927 68 204 0.0 0.0 0.00 0.00 0.00 34 1016.1
20260503231433 68 204 0.0 0.0 0.00 0.00 0.00 34 1016.1
20260503230940 68 204 0.0 0.0 0.00 0.00 0.00 34 1016.1
20260503230427 68 204 0.0 0.0 0.00 0.00 0.00 33 1016.2
20260503225928 69 204 0.0 0.0 0.00 0.00 0.00 33 1016.2
20260503225431 69 204 0.0 0.0 0.00 0.00 0.00 33 1016.1
20260503224938 69 204 0.0 0.0 0.00 0.00 0.00 35 1016.2
20260503224444 69 204 0.0 0.0 0.00 0.00 0.00 33 1016.3
20260503223952 69 204 0.0 0.0 0.00 0.00 0.00 33 1016.3
20260503223427 69 204 0.0 0.0 0.00 0.00 0.00 32 1016.2
20260503222928 69 204 0.0 0.0 0.00 0.00 0.00 33 1016.3
20260503222428 70 204 0.0 0.0 0.00 0.00 0.00 35 1016.3
20260503221927 70 204 0.0 0.0 0.00 0.00 0.00 35 1016.2
20260503221427 70 204 0.0 0.0 0.00 0.00 0.00 35 1016.2
20260503220928 70 204 0.0 0.0 0.00 0.00 0.00 34 1016.3
20260503220428 70 204 0.0 0.0 0.00 0.00 0.00 33 1016.3
20260503215927 70 204 0.0 0.0 0.00 0.00 0.00 31 1016.3
20260503215428 70 204 0.0 0.0 0.00 0.00 0.00 32 1016.3
20260503214927 71 204 0.0 0.0 0.00 0.00 0.00 29 1016.3
20260503214433 71 204 0.0 0.0 0.00 0.00 0.00 30 1016.4
20260503213940 71 204 0.0 0.0 0.00 0.00 0.00 31 1016.4
20260503213427 71 204 0.0 0.0 0.00 0.00 0.00 27 1016.5
20260503212928 71 204 0.0 0.0 0.00 0.00 0.00 30 1016.5
20260503212427 71 204 0.0 0.0 0.00 0.00 0.00 29 1016.5
20260503211927 71 204 0.0 0.0 0.00 0.00 0.00 30 1016.5
20260503211433 71 204 0.0 0.0 0.00 0.00 0.00 29 1016.5
20260503210939 72 204 0.0 0.0 0.00 0.00 0.00 30 1016.6
20260503210427 72 204 0.0 0.0 0.00 0.00 0.00 32 1016.5
20260503205928 72 204 0.0 0.0 0.00 0.00 0.00 30 1016.6
20260503205428 72 204 0.0 0.0 0.00 0.00 0.00 31 1016.7
20260503204927 71 204 0.0 0.0 0.00 0.00 0.00 31 1016.7
20260503204427 71 204 0.0 0.0 0.00 0.00 0.00 31 1016.7
20260503203932 72 204 0.0 0.0 0.00 0.00 0.00 33 1016.7
20260503203430 72 204 0.0 0.0 0.00 0.00 0.00 33 1016.8
20260503202929 72 204 0.0 0.0 0.00 0.00 0.00 35 1016.9
20260503202436 72 204 0.0 0.0 0.00 0.00 0.00 31 1017.0
20260503201943 72 204 0.0 0.0 0.00 0.00 0.00 29 1017.0
20260503201450 72 204 0.0 0.0 0.00 0.00 0.00 31 1017.1
20260503200945 72 204 0.0 0.0 0.00 0.00 0.00 30 1017.1
20260503200452 72 204 0.0 0.0 0.00 0.00 0.00 29 1017.3
20260503195928 72 204 0.0 0.0 0.00 0.00 0.00 29 1017.4
20260503195427 72 204 0.0 0.0 0.00 0.00 0.00 29 1017.5
20260503194930 72 204 0.0 0.0 0.00 0.00 0.00 27 1017.7
20260503194437 73 204 0.0 0.0 0.00 0.00 0.00 29 1017.9
20260503193944 74 204 0.0 0.0 0.00 0.00 0.00 27 1017.9
20260503193439 74 204 0.0 0.0 0.00 0.00 0.00 27 1018.2
20260503192927 75 204 0.0 0.0 0.00 0.00 0.00 25 1018.2
20260503192427 76 204 0.0 0.0 0.00 0.00 0.00 26 1018.2
20260503191927 76 204 0.0 0.0 0.00 0.00 0.00 26 1018.5
20260503191433 76 204 0.0 0.0 0.00 0.00 0.00 25 1018.5
20260503190939 76 204 0.0 0.0 0.00 0.00 0.00 29 1018.5
20260503190427 76 204 0.0 0.0 0.00 0.00 0.00 27 1018.5
20260503185927 75 204 0.0 0.0 0.00 0.00 0.00 26 1018.5
20260503185427 75 204 0.0 0.0 0.00 0.00 0.00 30 1018.6
20260503184927 73 204 0.0 0.0 0.00 0.00 0.00 30 1018.7
20260503184427 73 204 0.0 0.0 0.00 0.00 0.00 30 1018.7
20260503183927 73 204 0.0 0.0 0.00 0.00 0.00 29 1018.7
20260503183427 73 204 0.0 0.0 0.00 0.00 0.00 28 1018.9
20260503182927 73 204 0.0 0.0 0.00 0.00 0.00 28 1019.0
20260503182427 73 204 0.0 0.0 0.00 0.00 0.00 32 1019.0
20260503181927 72 204 0.0 0.0 0.00 0.00 0.00 31 1019.0
20260503181427 72 204 0.0 0.0 0.00 0.00 0.00 29 1019.0
20260503180927 72 204 0.0 0.0 0.00 0.00 0.00 30 1019.0
20260503180427 71 204 0.0 0.0 0.00 0.00 0.00 35 1019.1
20260503175927 70 204 0.0 0.0 0.00 0.00 0.00 30 1019.1
20260503175427 70 204 0.0 0.0 0.00 0.00 0.00 34 1019.2
20260503174927 69 204 0.0 0.0 0.00 0.00 0.00 34 1019.2
20260503174427 70 204 0.0 0.0 0.00 0.00 0.00 32 1019.2
20260503173933 70 204 0.0 0.0 0.00 0.00 0.00 33 1019.2
20260503173439 70 204 0.0 0.0 0.00 0.00 0.00 37 1019.3
20260503172927 69 204 0.0 0.0 0.00 0.00 0.00 37 1019.4
20260503172427 69 204 0.0 0.0 0.00 0.00 0.00 36 1019.4
20260503171927 68 204 0.0 0.0 0.00 0.00 0.00 38 1019.5
20260503171427 67 204 0.0 0.0 0.00 0.00 0.00 41 1019.5
20260503170927 67 204 0.0 0.0 0.00 0.00 0.00 38 1019.5
20260503170427 68 204 0.0 0.0 0.00 0.00 0.00 36 1019.5
20260503150927 60 204 0.0 0.0 0.00 0.00 0.00 57 1020.5
20260503150427 60 204 0.0 0.0 0.00 0.00 0.00 58 1020.4
20260503130954 46 204 0.0 0.0 0.00 0.00 0.00 85 1020.1
20260503130454 45 204 0.0 0.0 0.00 0.00 0.00 85 1020.1
20260503110525 40 204 0.0 0.0 0.00 0.00 0.00 82 1019.4
20260503090506 43 204 0.0 0.0 0.00 0.00 0.00 80 1018.1
20260503081506 44 204 0.0 0.0 0.00 0.00 0.00 80 1017.5
20260503080954 44 204 0.0 0.0 0.00 0.00 0.00 81 1017.5
20260503080454 44 204 0.0 0.0 0.00 0.00 0.00 80 1017.4
20260503072506 45 204 0.0 0.0 0.00 0.00 0.00 80 1017.1
20260503071954 45 204 0.0 0.0 0.00 0.00 0.00 80 1017.2
20260503071454 45 204 0.0 0.0 0.00 0.00 0.00 81 1017.1
20260503070955 46 204 0.0 0.0 0.00 0.00 0.00 81 1017.1
20260503070502 46 204 0.0 0.0 0.00 0.00 0.00 81 1017.0
20260503054924 49 204 0.0 0.0 0.00 0.00 0.00 82 1016.8
20260503054431 49 204 0.0 0.0 0.00 0.00 0.00 82 1016.9
20260503053919 49 204 0.0 0.0 0.00 0.00 0.00 82 1016.9
20260503053419 49 204 0.0 0.0 0.00 0.00 0.00 82 1016.9
20260503052919 50 204 0.0 0.0 0.00 0.00 0.00 81 1016.9
20260503052419 50 204 0.0 0.0 0.00 0.00 0.00 81 1016.9
20260503051924 50 204 0.0 0.0 0.00 0.00 0.00 81 1016.9
20260503051431 50 204 0.0 0.0 0.00 0.00 0.00 80 1016.9
20260503050918 51 204 0.0 0.0 0.00 0.00 0.00 80 1016.8
20260503050418 51 204 0.0 0.0 0.00 0.00 0.00 80 1016.7
20260503045919 51 204 0.0 0.0 0.00 0.00 0.00 80 1016.8
20260503045419 51 204 0.0 0.0 0.00 0.00 0.00 80 1016.8
20260503044919 51 204 0.0 0.0 0.00 0.00 0.00 80 1016.8
20260503044419 52 204 0.0 0.0 0.00 0.00 0.00 80 1016.8
20260503043918 52 204 0.0 0.0 0.00 0.00 0.00 79 1016.7
20260503043419 52 204 0.0 0.0 0.00 0.00 0.00 79 1016.8
20260503042919 52 204 0.0 0.0 0.00 0.00 0.00 79 1016.7
20260503042419 53 204 0.0 0.0 0.00 0.00 0.00 80 1016.6
20260503041919 53 204 0.0 0.0 0.00 0.00 0.00 79 1016.6
20260503041419 53 204 0.0 0.0 0.00 0.00 0.00 79 1016.6
20260503040918 53 204 0.0 0.0 0.00 0.00 0.00 79 1016.4
20260503040419 53 204 0.0 0.0 0.00 0.00 0.00 79 1016.4
20260503035924 53 204 0.0 0.0 0.00 0.00 0.00 79 1016.6
20260503035431 54 204 0.0 0.0 0.00 0.00 0.00 79 1016.5
20260503034919 54 204 0.0 0.0 0.00 0.00 0.00 79 1016.6